Regional Weather Roundup
Issued by NWS

Home | Current Version | Previous Version | Graphics & Text | Print | Product List | Glossary On
Versions: 1 2 3 4 5 6 7 8 9 10 11 12 13 14 15 16 17 18 19 20 21 22 23 24 25 26 27 28 29 30 31 32 33 34 35 36 37 38 39 40 41 42 43 44 45 46 47 48 49 50
000
ASUS43 KLMK 280010
RWRKY
KENTUCKY REGIONAL WEATHER ROUNDUP
NATIONAL WEATHER SERVICE LOUISVILLE KY
800 PM EDT FRI MAY 27 2016

NOTE "FAIR" INDICATES FEW OR NO CLOUDS BELOW 12,000 FEET
WITH NO SIGNIFICANT WEATHER AND/OR OBSTRUCTIONS TO VISIBILITY.

KYZ001>023-026-027-061>063-070>075-280100-
WESTERN AND SOUTH CENTRAL KENTUCKY

CITY           SKY/WX    TMP DP  RH WIND       PRES   REMARKS
PADUCAH        CLOUDY    78  64  61 S8        29.89R
HENDERSON      CLOUDY    81  63  54 S8        29.90R
OWENSBORO      CLOUDY    81  65  58 S10       29.93R
HOPKINSVILLE   CLOUDY    79  66  63 S7        29.93R
BOWLING GREEN  CLOUDY    83  67  58 VRB6      29.94R
GLASGOW        CLOUDY    81  66  59 CALM      29.96R
$$

KYZ024-025-028>034-038-045-046-053-280100-
NORTH CENTRAL KENTUCKY

CITY           SKY/WX    TMP DP  RH WIND       PRES   REMARKS
LOUISVILLE/SDF MOCLDY    84  64  50 SE8       29.94R
LOUISVILLE/LOU CLEAR     84  64  50 S6        29.95R
FORT KNOX      PTCLDY    82  67  60 S5        29.94R
$$

KYZ035>037-039>044-047>052-055>060-089>105-280100-
NORTHEAST KENTUCKY

CITY           SKY/WX    TMP DP  RH WIND       PRES   REMARKS
LEXINGTON      CLEAR     81  65  58 SE7       30.00R
COVINGTON      MOCLDY    81  67  62 S7        29.98R
FRANKFORT      CLEAR     82  65  56 S5        29.97R
$$

KYZ054-064>069-076>088-106>120-280100-
SOUTHEAST KENTUCKY

CITY           SKY/WX    TMP DP  RH WIND       PRES   REMARKS
JACKSON        CLOUDY    69  65  86 CALM      30.04R
LONDON         MOCLDY    75  64  68 SE6       30.04R
SOMERSET       CLEAR     77  64  65 CALM      30.02R
MIDDLESBORO    CLOUDY    69  67  94 CALM      30.06R
MONTICELLO     CLOUDY    75  69  81 N8        30.02R
$$





USA.gov is the U.S. government's official web portal to all federal, state and local government web resources and services.